Location: Cabeza de los Veneras
(40.2000°N, 5.2000°W)
Time: 12:50:27
(UTC+00:00)

CZ-4C R/B - Pass Details

Date: 18 April 2024
Orbit: 530 x 1464 km, 63.4° (Epoch: 26 May)

Event Time Altitude Azimuth Distance (km) Brightness Sun altitude
Rises 20:29:54 0° 331° (NNW) 3,700 6.6 -16.1°
Reaches altitude 10° 20:32:50 10° 345° (NNW) 2,902 5.6 -16.5°
Maximum altitude 20:38:36 26° 40° (NE) 2,201 4.3 -17.5°
Enters shadow 20:43:21 16° 83° (E) 2,919 4.5 -18.2°
